Date String (YYYY-MM-DD hh:mm:ss) UTC,Instrument flags,Ambient pressure (hPa),Sample flow (lpm),Bypass flow (lpm),Sample temperature (°C),Ambient temperature (°C),ASC tube jacket temperature (°C),LED temperature (°C),Box temperature (°C),Sample RH (%),Span deviation,Mass concentration (μg/m³),Mass concentration (μg/m³),Mass concentration (μg/m³)
DateTimeUTC,F1_M11,P_M11,Q1_M11,Q2_M11,T1_M11,T2_M11,T3_M11,T4_M11,T5_M11,U1_M11,ZSPAN_M11,X2_M11,X0_M11,X1_M11
2022-11-22 02:00:00,,0829.1,5.01,0.00,26.3,24.4,00.0,35.4,28.0,07.7,0009.4,0007.41,0012.32,0006.87
2022-11-22 02:01:00,,0828.7,5.00,0.00,26.3,24.4,00.0,35.4,28.0,07.7,0005.9,0007.38,0013.11,0006.81
2022-11-22 02:02:00,,0828.6,5.00,0.00,26.2,24.4,00.0,35.3,28.0,07.7,0002.5,0007.31,0013.34,0006.75
2022-11-22 02:03:00,,0828.5,5.00,0.00,26.2,24.4,00.0,35.3,27.9,07.8,0001.2,0007.30,0013.49,0006.72
2022-11-22 02:04:00,,0828.8,5.00,0.00,26.2,24.4,00.0,35.3,27.9,07.8,0000.0,0007.29,0014.00,0006.72
2022-11-22 02:05:00,,0828.6,5.00,0.00,26.2,24.4,00.0,35.3,27.8,07.8,0000.0,0007.27,0014.21,0006.73
2022-11-22 02:06:00,,0828.6,4.99,0.00,26.2,24.4,00.0,35.3,27.9,07.8,0000.0,0007.24,0014.21,0006.73
2022-11-22 02:07:00,,0828.7,4.99,0.00,26.2,24.4,00.0,35.3,27.9,07.8,0000.0,0007.22,0014.15,0006.70
2022-11-22 02:08:00,,0828.6,5.00,0.00,26.1,24.3,00.0,35.2,27.9,07.8,0000.0,0007.27,0015.02,0006.71
2022-11-22 02:09:00,,0828.8,5.00,0.00,26.1,24.3,00.0,35.2,27.9,07.8,0000.0,0007.36,0015.67,0006.81
2022-11-22 02:10:00,,0829.1,5.01,0.00,26.1,24.4,00.0,35.2,27.9,07.8,0000.0,0007.49,0015.74,0006.92
2022-11-22 02:11:00,,0829.0,5.00,0.00,26.1,24.3,00.0,35.2,27.8,07.8,0000.0,0007.57,0015.23,0007.01
2022-11-22 02:12:00,,0828.7,5.00,0.00,26.1,24.3,00.0,35.2,27.8,07.9,0000.0,0007.61,0014.67,0007.04
2022-11-22 02:13:00,,0828.6,5.00,0.00,26.1,24.3,00.0,35.2,27.8,07.9,0001.3,0007.56,0014.35,0007.01
2022-11-22 02:14:00,,0828.6,5.00,0.00,26.0,24.3,00.0,35.1,27.8,07.9,0004.3,0007.58,0014.18,0007.01
2022-11-22 02:15:00,,0828.8,4.99,0.00,26.0,24.3,00.0,35.1,27.8,07.9,0007.0,0007.59,0014.11,0007.00
2022-11-22 02:16:00,,0828.8,4.99,0.00,26.0,24.2,00.0,35.1,27.7,07.9,0000.0,0007.60,0014.23,0006.97
2022-11-22 02:17:00,,0828.8,5.00,0.00,26.0,24.2,00.0,35.1,27.7,07.9,0000.0,0007.57,0014.15,0006.96
2022-11-22 02:18:00,,0829.1,5.00,0.00,26.0,24.2,00.0,35.1,27.7,07.9,0006.6,0007.57,0014.24,0006.96
2022-11-22 02:19:00,,0829.1,5.00,0.00,26.0,24.2,00.0,35.1,27.7,07.9,0006.5,0007.53,0013.43,0006.93
2022-11-22 02:20:00,,0828.8,5.01,0.00,26.0,24.2,00.0,35.0,27.7,07.9,0006.7,0007.52,0012.97,0006.89
2022-11-22 02:21:00,,0828.6,5.01,0.00,25.9,24.1,00.0,35.0,27.7,07.9,0006.7,0007.45,0012.84,0006.85
2022-11-22 02:22:00,,0828.7,4.98,0.00,25.9,24.1,00.0,35.0,27.7,08.0,0006.7,0007.38,0013.04,0006.78
2022-11-22 02:23:00,,0828.7,5.00,0.00,25.9,24.1,00.0,35.0,27.6,08.1,0006.7,0007.30,0013.06,0006.73
2022-11-22 02:24:00,,0828.6,5.00,0.00,25.9,24.1,00.0,35.0,27.5,08.1,0006.4,0007.30,0013.00,0006.73
2022-11-22 02:25:00,,0828.6,5.00,0.00,25.8,24.0,00.0,34.9,27.5,08.0,0006.4,0007.27,0012.94,0006.72
2022-11-22 02:26:00,,0828.6,5.01,0.00,25.8,24.0,00.0,34.9,27.5,08.0,0006.6,0007.32,0012.67,0006.76
2022-11-22 02:27:00,,0828.6,5.01,0.00,25.8,24.0,00.0,34.9,27.5,08.0,0006.4,0007.34,0012.65,0006.80
2022-11-22 02:28:00,,0828.8,5.00,0.00,25.8,24.0,00.0,34.9,27.5,08.0,0004.2,0007.41,0013.02,0006.84
2022-11-22 02:29:00,,0828.6,5.00,0.00,25.8,24.0,00.0,34.9,27.4,08.0,0003.7,0007.49,0013.44,0006.89
2022-11-22 02:30:00,,0828.7,4.99,0.00,25.7,24.0,00.0,34.8,27.4,08.0,0006.2,0007.55,0013.89,0006.95
2022-11-22 02:31:00,,0828.8,5.00,0.00,25.7,24.0,00.0,34.8,27.4,08.1,0006.7,0007.56,0013.78,0006.99
2022-11-22 02:32:00,,0828.9,5.01,0.00,25.7,24.0,00.0,34.8,27.4,08.1,0006.7,0007.59,0013.85,0007.03
2022-11-22 02:33:00,,0829.0,5.00,0.00,25.7,24.0,00.0,34.8,27.4,08.0,0002.4,0007.62,0013.75,0007.05
2022-11-22 02:34:00,,0829.1,5.00,0.00,25.7,24.0,00.0,34.8,27.5,08.0,0000.0,0007.68,0013.55,0007.10
2022-11-22 02:35:00,,0829.0,5.00,0.00,25.7,24.0,00.0,34.8,27.5,08.0,0000.0,0007.72,0013.51,0007.15
2022-11-22 02:36:00,,0828.8,4.99,0.00,25.7,23.9,00.0,34.8,27.4,08.0,0000.0,0007.74,0013.80,0007.17
2022-11-22 02:37:00,,0828.6,4.99,0.00,25.6,23.9,00.0,34.7,27.3,08.0,0000.0,0007.70,0013.64,0007.14
2022-11-22 02:38:00,,0828.6,5.01,0.00,25.6,23.9,00.0,34.7,27.3,08.0,0000.0,0007.66,0013.33,0007.10
2022-11-22 02:39:00,,0828.5,5.01,0.00,25.6,23.8,00.0,34.7,27.3,08.0,0000.0,0007.57,0012.86,0007.03
2022-11-22 02:40:00,,0828.7,5.00,0.00,25.6,23.8,00.0,34.7,27.4,08.0,0000.0,0007.50,0012.62,0006.97
2022-11-22 02:41:00,,0828.7,4.99,0.00,25.6,23.8,00.0,34.7,27.2,08.0,0000.0,0007.44,0013.43,0006.91
2022-11-22 02:42:00,,0828.8,5.00,0.00,25.5,23.8,00.0,34.6,27.1,08.0,0000.0,0007.38,0013.76,0006.86
2022-11-22 02:43:00,,0828.8,5.01,0.00,25.5,23.8,00.0,34.6,27.1,08.0,0000.0,0007.30,0013.64,0006.78
2022-11-22 02:44:00,,0829.0,5.00,0.00,25.5,23.8,00.0,34.6,27.1,08.0,0000.0,0007.22,0013.60,0006.69
2022-11-22 02:45:00,,0828.8,5.00,0.00,25.5,23.7,00.0,34.6,27.2,07.9,0000.0,0007.12,0013.60,0006.62
2022-11-22 02:46:00,,0828.5,5.00,0.00,25.5,23.7,00.0,34.6,27.2,07.9,0000.0,0007.05,0013.61,0006.53
2022-11-22 02:47:00,,0828.5,5.00,0.00,25.5,23.7,00.0,34.6,27.2,07.9,0000.0,0006.98,0013.34,0006.44
2022-11-22 02:48:00,,0828.5,5.00,0.00,25.4,23.7,00.0,34.5,27.2,07.9,0000.0,0006.94,0013.11,0006.38
2022-11-22 02:49:00,,0828.4,5.00,0.00,25.4,23.7,00.0,34.5,27.2,07.9,0000.0,0006.93,0013.16,0006.37
2022-11-22 02:50:00,,0828.5,5.00,0.00,25.4,23.7,00.0,34.5,27.2,07.9,0000.0,0006.95,0013.53,0006.38
2022-11-22 02:51:00,,0828.5,5.00,0.00,25.4,23.7,00.0,34.5,27.2,08.0,0001.0,0006.91,0013.42,0006.35
2022-11-22 02:52:00,,0828.4,5.01,0.00,25.4,23.7,00.0,34.5,27.2,08.1,0000.0,0006.84,0012.29,0006.26
2022-11-22 02:53:00,,0828.6,5.00,0.00,25.4,23.7,00.0,34.5,27.1,08.0,0000.0,0006.85,0012.02,0006.24
2022-11-22 02:54:00,,0828.6,5.00,0.00,25.4,23.7,00.0,34.5,27.1,08.0,0000.0,0006.86,0012.55,0006.23
2022-11-22 02:55:00,,0828.6,5.00,0.00,25.3,23.6,00.0,34.4,27.1,08.2,0000.0,0006.83,0012.64,0006.18
2022-11-22 02:56:00,,0828.5,5.00,0.00,25.3,23.6,00.0,34.4,26.9,08.5,0000.0,0006.76,0013.06,0006.10
2022-11-22 02:57:00,,0828.5,4.99,0.00,25.3,23.6,00.0,34.4,26.9,08.6,0000.0,0006.65,0012.90,0005.99
2022-11-22 02:58:00,,0828.5,5.00,0.00,25.3,23.6,00.0,34.4,26.9,08.5,0000.0,0006.54,0012.75,0005.90
2022-11-22 02:59:00,,0828.5,5.00,0.00,25.3,23.6,00.0,34.3,26.9,08.6,0000.0,0006.43,0012.69,0005.79
